Вернуться в каталог

NAVSTAR 28

USA 85

АктивенНавигацияMEO
NORAD 22231·PAYLOAD·🇺🇸 United States

Запущен Nov 22, 1992 с Cape Canaveral Space Force Station

Loading…

Ближайшие Пролёты (ближайшие 24 часа)

TLE

СвежийSource: Space-Track

Эпоха: Sep 13, 2026, 20:39 UTC

1 22231U 92079A   26256.86064584  .00000006  00000-0  00000-0 0  9995
2 22231  55.5949 110.7632 0024748   8.3814 351.7499  1.89108681 63816

Отслеживайте NAVSTAR 28 в реальном времени с AllMySat

Download on the App Store